Torna al catalogo

STARLINK-11075

AttivoComunicazioniVLEO
NORAD 58706·PAYLOAD·🇺🇸 United States

Lanciato Jan 3, 2024 da Vandenberg Space Force Base

Loading…

Prossimi Passaggi (prossime 24 ore)

TLE

AggiornatoSource: CelesTrak SupGP

Epoca: Sep 14, 2026, 22:28 UTC

1 58706C 24002B   26257.93659722  .00131350  00000+0  72288-3 0  2578
2 58706  53.1458  58.5569 0001815 231.3312 179.0426 15.78949742    18

Traccia STARLINK-11075 in tempo reale con AllMySat

Download on the App Store